EW1556 Weather Reports


Display with metric or nautical units.
time (UTC)temp
F
wind
direction
speed
MPH
gust
MPH
rain 1hr
in
rain 24hr
in
rain mn
in
humidity
%
barometer
mb
20260901160029 64 292 8.0 13.0 0.00 0.06 0.06 59 1006.9
20260901154526 63 293 11.0 14.0 0.00 0.06 0.06 60 1006.9
20260901153035 63 276 9.0 14.0 0.00 0.06 0.06 63 1006.9
20260901151525 62 268 9.0 14.0 0.00 0.06 0.06 64 1006.8
20260901150024 61 295 6.0 11.0 0.00 0.06 0.06 66 1006.7
20260901144533 0 0.0 0.0 0.00 0.06 0.06 1006.7
20260901143020 0 0.0 0.0 0.00 0.06 0.06 1006.6
20260901141516 0 0.0 0.0 0.00 0.06 0.06 1006.6
20260901140012 0 0.0 0.0 0.06 0.06 0.06 1006.5
20260901134507 0 0.0 0.0 0.06 0.06 0.06 1006.4
20260901133005 0 0.0 0.0 0.06 0.06 0.06 1006.4
20260901131605 59 274 4.0 7.0 0.06 0.06 0.06 68 1006.4
20260901130058 58 272 5.0 7.0 0.00 0.00 0.00 68 1006.4
20260901124559 56 270 3.0 6.0 0.00 0.00 0.00 72 1006.3
20260901123054 58 277 3.0 4.0 0.00 0.00 0.00 68 1006.3
20260901121609 58 295 2.0 4.0 0.00 0.00 0.00 67 1006.2
20260901120059 57 286 0.0 0.0 0.00 0.00 0.00 67 1006.2
20260901114557 58 284 0.0 2.0 0.00 0.00 0.00 64 1006.4
20260901113046 59 293 2.0 4.0 0.00 0.00 0.00 63 1006.3
20260901111549 60 295 2.0 6.0 0.00 0.00 0.00 60 1006.4
20260901110047 59 268 2.0 4.0 0.00 0.00 0.00 61 1006.3
20260901104541 59 281 3.0 4.0 0.00 0.00 0.00 59 1006.4
20260901103040 60 290 2.0 4.0 0.00 0.00 0.00 57 1006.4
20260901101540 60 297 3.0 4.0 0.00 0.00 0.00 56 1006.4
20260901100039 60 287 3.0 5.0 0.00 0.00 0.00 56 1006.4
20260901094537 60 289 4.0 6.0 0.00 0.00 0.00 56 1006.4
20260901093045 60 282 3.0 5.0 0.00 0.00 0.00 58 1006.5
20260901091554 60 283 2.0 3.0 0.00 0.00 0.00 59 1006.6
20260901090032 60 291 2.0 4.0 0.00 0.00 0.00 58 1006.7
20260901084533 60 281 1.0 3.0 0.00 0.00 0.00 57 1006.6
20260901083030 61 278 5.0 6.0 0.00 0.00 0.00 57 1006.6
20260901081529 61 283 4.0 7.0 0.00 0.00 0.00 55 1006.7
20260901080027 61 287 5.0 7.0 0.00 0.00 0.00 55 1006.8
20260901074524 62 297 4.0 6.0 0.00 0.00 0.00 53 1006.9
20260901073025 62 297 5.0 7.0 0.00 0.00 0.00 51 1006.9
20260901071520 60 289 4.0 5.0 0.00 0.00 0.00 51 1007.0
20260901070025 60 281 4.0 5.0 0.00 0.00 0.00 49 1007.0
20260901064513 61 287 4.0 6.0 0.00 0.00 0.00 46 1007.1
20260901063007 61 291 4.0 6.0 0.00 0.00 0.00 44 1007.1
20260901061503 62 281 4.0 6.0 0.00 0.00 0.00 41 1007.2
20260901060059 62 287 4.0 6.0 0.00 0.00 0.00 38 1007.4
20260901054554 63 294 3.0 6.0 0.00 0.00 0.00 36 1007.5
20260901053112 63 287 4.0 7.0 0.00 0.00 0.00 36 1007.7
20260901051545 64 289 4.0 6.0 0.00 0.00 0.00 35 1007.7
20260901050041 64 289 3.0 4.0 0.00 0.00 0.00 35 1007.7
20260901044538 62 276 0.0 2.0 0.00 0.00 0.00 37 1007.7
20260901043032 64 286 0.0 2.0 0.00 0.00 0.00 34 1007.7
20260901041527 66 288 2.0 3.0 0.00 0.00 0.00 33 1007.5
20260901040028 66 293 0.0 3.0 0.00 0.00 0.00 32 1007.5
20260901034518 68 283 2.0 3.0 0.00 0.00 0.00 30 1007.3
20260901033030 70 59 0.0 0.0 0.00 0.00 0.00 29 1007.2
20260901031512 71 59 0.0 0.0 0.00 0.00 0.00 28 1007.0
20260901030012 73 59 0.0 0.0 0.00 0.00 0.00 27 1007.0
20260901024607 73 59 0.0 0.0 0.00 0.00 0.00 27 1006.8
20260901023056 74 65 0.0 3.0 0.00 0.00 0.00 26 1006.6
20260901021555 76 77 0.0 3.0 0.00 0.00 0.00 25 1006.6
20260901020048 77 65 1.0 3.0 0.00 0.00 0.00 24 1006.5
20260901014543 79 63 3.0 7.0 0.00 0.00 0.00 23 1006.5
20260901013039 81 55 5.0 9.0 0.00 0.00 0.00 21 1006.4
20260901011540 81 46 5.0 10.0 0.00 0.00 0.00 20 1006.5
20260901010037 82 54 3.0 13.0 0.00 0.00 0.00 20 1006.4
20260901004524 83 77 6.0 11.0 0.00 0.00 0.00 20 1006.6
20260901003020 83 69 5.0 13.0 0.00 0.00 0.00 20 1006.6
20260901001523 83 68 6.0 11.0 0.00 0.00 0.00 20 1006.7
20260901000011 83 43 6.0 12.0 0.00 0.00 0.00 19 1006.8
20260831234520 83 80 5.0 12.0 0.00 0.00 0.00 19 1006.9
20260831233001 83 54 1.0 12.0 0.00 0.00 0.00 19 1007.0
20260831231557 83 60 5.0 9.0 0.00 0.00 0.00 19 1007.1
20260831230100 82 21 1.0 11.0 0.00 0.00 0.00 20 1007.4
20260831224548 82 65 4.0 11.0 0.00 0.00 0.00 21 1007.7
20260831223045 82 74 3.0 10.0 0.00 0.00 0.00 21 1007.9
20260831221543 81 56 3.0 10.0 0.00 0.00 0.00 22 1008.1
20260831220035 81 84 6.0 12.0 0.00 0.00 0.00 22 1008.3
20260831214540 81 94 6.0 11.0 0.00 0.00 0.00 22 1008.5
20260831213037 80 37 3.0 13.0 0.00 0.00 0.00 23 1008.7
20260831211521 79 38 2.0 12.0 0.00 0.00 0.00 23 1009.0
20260831210017 79 28 6.0 15.0 0.00 0.00 0.00 23 1009.3
20260831204512 79 225 1.0 6.0 0.00 0.00 0.00 24 1009.5
20260831203007 78 56 2.0 7.0 0.00 0.00 0.00 25 1009.7
20260831201503 77 122 4.0 9.0 0.00 0.00 0.00 26 1009.9
20260831200058 76 90 3.0 9.0 0.00 0.00 0.00 27 1010.2
20260831194553 76 124 3.0 11.0 0.00 0.00 0.00 28 1010.5
20260831193052 74 60 1.0 9.0 0.00 0.00 0.00 31 1010.6
20260831191544 73 95 3.0 10.0 0.00 0.00 0.00 32 1011.0
20260831190053 73 130 2.0 7.0 0.00 0.00 0.00 32 1011.4
20260831184539 72 331 2.0 9.0 0.00 0.00 0.00 34 1011.7
20260831183030 71 71 4.0 8.0 0.00 0.00 0.00 34 1011.9
20260831181528 69 345 1.0 10.0 0.00 0.00 0.00 36 1012.2
20260831180022 70 7 2.0 7.0 0.00 0.00 0.00 38 1012.4
20260831174516 68 122 1.0 6.0 0.00 0.00 0.00 41 1012.6
20260831173012 67 108 3.0 6.0 0.00 0.00 0.00 41 1012.7
20260831171509 66 6 0.0 6.0 0.00 0.00 0.00 45 1012.8
20260831170005 65 76 2.0 7.0 0.00 0.00 0.00 48 1012.9
20260831164603 64 54 0.0 4.0 0.00 0.00 0.00 49 1012.9
20260831163054 63 322 0.0 3.0 0.00 0.00 0.00 50 1013.1
20260831161550 62 308 0.0 0.0 0.00 0.00 0.00 51 1013.2